Simultaneous Nadir Overpasses (SNOs) Predictions

Prediction of SNOs between LANDSAT-8 and NOAA-19 Satellite Orbit:

Table of predicted SNOs for the next 14.0 days since TLE Epoch: 7/9/2022
Index Date (LANDSAT-8) Time (LANDSAT-8) Lat,Lon (LANDSAT-8) SZA (LANDSAT-8 ) Date (NOAA-19) Time (NOAA-19) Lat,Lon (NOAA-19) SZA (NOAA-19 ) Distance(km) Time Diff (sec)
1 07/10/2022 02:29:01 80.80, 178.38 60.22 07/10/2022 02:28:59 80.81, 178.44 60.24 2.18 2
2 07/12/2022 08:02:44 -80.82, -84.71 119.44 07/12/2022 08:01:50 -80.81, -84.55 119.46 3.23 54
3 07/12/2022 08:52:11 80.80, 82.64 60.52 07/12/2022 08:52:53 80.81, 82.57 60.54 1.90 42
4 07/14/2022 14:25:54 -80.83, 179.53 119.11 07/14/2022 14:25:45 -80.81, 179.38 119.14 3.15 9
5 07/16/2022 19:59:37 80.83, -83.91 61.24 07/16/2022 19:58:41 80.81, -83.76 61.23 2.95 56
6 07/16/2022 20:49:04 -80.83, 83.74 118.75 07/16/2022 20:49:39 -80.81, 83.63 118.76 2.53 35
7 07/19/2022 02:22:47 80.82,-179.77 61.62 07/19/2022 02:22:35 80.82,-179.77 61.61 0.41 12
8 07/21/2022 07:56:31 -80.81, -83.28 117.98 07/21/2022 07:55:29 -80.82, -83.14 117.99 2.58 62



Historial Predications of SNOs between LANDSAT-8 and NOAA-19
